Home   Weather   Wesel   Past weeks

Flag for Germany Past Weather in Wesel, North Rhine-Westphalia, Germany — Yesterday and Last 2 Weeks

Now
63 °F

Sunny.


Feels Like: 63 °F
Forecast: 55 / 70 °F
Wind: 3 mph from North

Location: Niederrhein

Current Time: Sep 27, 2016 at 12:40:34 PM

Latest Report: Sep 27, 2016 at 11:50 AM


Visibility: 10 mi

Pressure: 30.30 "Hg

Humidity: 77%

Dew Point: 55 °F

Location of WeselLocation

Past Weather in Wesel — Graph

°F

Wesel Temperature Yesterday

Maximum temperature yesterday: 66 °F (at 1:20 PM)
Minimum temperature yesterday: 46 °F (at 7:50 AM)
Average temperature yesterday: 59 °F

High & Low Weather Summary for the Past Weeks

 TemperatureHumidityPressure
High91 °F (Sep 13, 3:50 PM)100% (Sep 15, 11:50 PM)30.30 "Hg (Sep 15, 11:50 PM)
Low43 °F (Sep 27, 7:50 AM)26% (Sep 14, 3:50 PM)29.77 "Hg (Sep 15, 3:50 PM)
Average66 °F70%30.06 "Hg
* Reported Sep 12 11:20 AM — Sep 27 11:20 AM, Wesel, Weather by CustomWeather, © 2016

Note: Actual official high and low records may vary slightly from our data, if they occured in-between our weather recording intervals... More about our weather records

Advertising

Wesel Weather History for the Previous 24 Hours

Scroll right to see more
 ConditionsComfort  
Time TempWeatherWind HumidityBarometerVisibility
11:20 AM
Tue, Sep 27
61 °FSunny.3 mph83%30.30 "Hg10 mi
10:50 AM57 °FSunny.3 mph100%30.30 "Hg10 mi
10:20 AM55 °FSunny.3 mph100%30.30 "Hg10 mi
9:50 AM52 °FSunny.2 mph100%30.30 "Hg10 mi
9:20 AM48 °FSunny.No wind100%30.30 "Hg10 mi
8:50 AM46 °FFog.2 mph100%30.30 "Hg0 mi
8:20 AM45 °FQuite cool.2 mph100%30.30 "Hg3 mi
7:50 AM43 °FFog.No wind100%30.27 "Hg2 mi
6:50 AM45 °FClear.No wind100%30.27 "Hg6 mi
6:20 AM46 °FCool.No wind100%30.27 "Hg1 mi
5:50 AM46 °FClear.No wind100%30.27 "Hg5 mi
5:20 AM46 °FFog.No wind100%30.27 "Hg2 mi
4:50 AM48 °FFog.2 mph100%30.27 "Hg1 mi
11:50 PM
Mon, Sep 26
54 °FClear.No wind94%30.24 "Hg10 mi
11:20 PM55 °FClear.3 mph88%30.24 "Hg10 mi
10:50 PM54 °FClear.3 mph88%30.24 "Hg10 mi
10:20 PM55 °FClear.No wind88%30.24 "Hg10 mi
9:50 PM57 °FClear.2 mph82%30.24 "Hg10 mi
9:20 PM59 °FClear.No wind72%30.24 "Hg10 mi
8:50 PM59 °FClear.2 mph72%30.24 "Hg10 mi
8:20 PM59 °FSunny.3 mph72%30.24 "Hg10 mi
7:50 PM59 °FSunny.No wind72%30.24 "Hg10 mi
7:20 PM63 °FSunny.2 mph64%30.24 "Hg10 mi
6:50 PM63 °FSunny.2 mph64%30.21 "Hg10 mi
6:20 PM64 °FSunny.3 mph56%30.21 "Hg10 mi
5:50 PM66 °FSunny.6 mph52%30.21 "Hg10 mi
5:20 PM66 °FSunny.3 mph52%30.21 "Hg10 mi
4:50 PM66 °FSunny.2 mph49%30.21 "Hg10 mi
4:20 PM66 °FSunny.2 mph49%30.21 "Hg10 mi
3:50 PM66 °FSunny.1 mph49%30.21 "Hg10 mi
3:20 PM66 °FSunny.3 mph49%30.21 "Hg10 mi
2:50 PM66 °FSunny.5 mph49%30.21 "Hg10 mi
2:20 PM66 °FSunny.5 mph49%30.21 "Hg10 mi
1:50 PM66 °FSunny.3 mph49%30.21 "Hg10 mi
1:20 PM66 °FPassing clouds.6 mph52%30.21 "HgN/A
12:50 PM64 °FPassing clouds.6 mph60%30.24 "HgN/A
12:20 PM64 °FSunny.3 mph68%30.24 "Hg10 mi
Weather by CustomWeather, © 2016

See weather overviewHow to use our weather pages